Showing default

COSMOS 1994, 19785

Orbit data source: Space-Track

COSMOS 1994, 19785 is a payload satellite owned by UNKS (CIS) in LEO that was launched on Fri, 10 Feb 1989 UTC via a TSIKLON-3 launch vehicle from the Plesetsk Missile And Space Complex (PKMTR). Payload-class satellites include a variety of spacecraft equipped with specific instruments for various scientific and technological missions. These include communications satellites like Starlink; space stations such as the ISS; scientific satellites like the Hubble; Earth observation satellites from companies like Planet Labs, Umbra, and HawkEye 360; GPS; miniature CubeSats for education and research; and military/defense satellites.

Loading next visibility...
Identifier
19785, 1989-009A
Orbit
LEO
Country
Flag of CISCIS
Related business
Manufacturer
NPO PM
Mission
Defense Communications
Bus & Motor
STRELA-3, Unknown motor
Mass
225 kg wet, 225 kg dry
Launch date (UTC)
1989-02-10 (37 years ago)
Launch vehicle
TSIKLON-3
Launch site
Plesetsk Missile And Space Complex (PKMTR)
Object type
Payload
Rocket body
Debris
Shape & HBR
Cyl, 0.8 m
Radar Cross Section
1.257 m², Large (>1 m²)

Expand to show TLE details & history
Last TLE update: 23 hours ago

TLE from 23 hours ago
0 COSMOS 1994
1 19785U 89009A   25306.48167704  .00000052  00000-0  22539-3 0  9990
2 19785  82.6179 136.1724 0013695 105.0244 317.9009 12.64336556694738
Epoch: 2025-11-02T11:33Z
TLE epoch observation values (Epoch: 2025-11-02T11:33:36.896Z)
Latitude
61.99499°
Longitude
-65.19926°
Altitude
1,407.776 km
Speed
7.166 km/s
True Right ascension
10h 00m 48s
True Declination
61° 51' 51"
Sunlit
Object was in daylight at epoch
Visualization orbit readout
Latitude
Unknown
Longitude
Unknown
Altitude
Unknown
Speed
Unknown
Apparent Right ascension
Unknown
Apparent Declination
Unknown
Sunlit
N/A
Visualization observer readout
Local Sidereal Time
06:47:01
Azimuth
Unknown
Elevation
Unknown
Doppler factor
Unknown
Orbital elements
Apogee altitude
1,413.068 km
Perigee altitude
1,391.757 km
Semi-major axis
7,780.55 km
Eccentricity
0.00137
Inclination
82.6179°
RAAN
136.1724°
Arg. of periapsis
105.0244°
True anomaly
317.79556°
Mean anomaly
317.9009°
Eccentric anomaly
317.84824°
Mean motion
3.16248 °/min
Orbital period
113.83 mins
BSTAR
0.00022539
Loading maneuver chart data...
Computing Atmospheric mass density...
Loading historical data...
Loading historical data...
Loading historical data...
Loading historical data...
Loading historical data...
Loading historical data...
Loading historical data...

Documentation

Showing up to 5 results
|